Regional Weather Roundup
Issued by NWS

Home | Current Version | Previous Version | Graphics & Text | Print | Product List | Glossary On
Versions: 1 2 3 4 5 6 7 8 9 10 11 12 13 14 15 16 17 18 19 20 21 22 23 24 25 26 27 28 29 30 31 32 33 34 35 36 37 38 39 40 41 42 43 44 45 46 47 48 49 50
000
ASUS43 KLOT 261508
RWRIL

ILLINOIS REGIONAL WEATHER ROUNDUP
NATIONAL WEATHER SERVICE CHICAGO/ROMEOVILLE IL
1000 AM CDT THU APR 26 2018

NOTE: "FAIR" INDICATES FEW OR NO CLOUDS BELOW 12,000 FEET WITH NO
SIGNIFICANT WEATHER AND/OR OBSTRUCTIONS TO VISIBILITY.

* THESE STATIONS ARE NOT UNDER NWS QUALITY CONTROL. THEY ALSO MAY NOT
  REPORT WEATHER SUCH AS PRECIPITATION OR FOG.

ILZ001-002-007-009-015-016-024-261600-
NORTHWEST ILLINOIS

CITY           SKY/WX    TMP DP  RH WIND       PRES   REMARKS
MOLINE         FAIR      56  36  47 SW8       29.95F
STERLING*      FAIR      55  32  41 VRB6      29.97F
SAVANNA*       FAIR      53  33  48 SW6       29.96S
$$

ILZ003-004-008-010-011-017-018-261600-
NORTH CENTRAL ILLINOIS

CITY           SKY/WX    TMP DP  RH WIND       PRES   REMARKS
ROCKFORD       CLOUDY    54  31  41 S9        29.97F
FREEPORT*      FAIR      54  33  45 SW9       29.97S
ROCHELLE*      FAIR      55  32  41 SW7       29.97S
DE KALB*       FAIR      56  31  39 SW3       29.97S
PERU*          FAIR      56  31  39 SE7       29.99S
$$

ILZ005-006-012>014-019>023-261600-
NORTHEAST ILLINOIS

CITY           SKY/WX    TMP DP  RH WIND       PRES   REMARKS
CHICAGO-OHARE  PTSUNNY   54  30  40 CALM      29.95F
CHICAGO-MIDWAY FAIR      53  29  39 CALM      29.97S
AURORA         FAIR      54  32  43 VRB6      29.97S
LANSING*       FAIR      50  36  57 E5        29.98S
JOLIET*        FAIR      55  32  42 CALM      29.97S
WAUKEGAN       FAIR      53  33  46 CALM      29.95F
DUPAGE AIRPORT FAIR      53  31  42 S5        29.96S
KANKAKEE*      FAIR      51  33  51 SE3       29.99S
WHEELING       FAIR      53  32  44 SW5       29.97F
MORRIS*        FAIR      53  32  44 S5        29.97S
ROMEOVILLE*    FAIR      54  32  43 SE6       29.97S
NORTHERLY ISL    N/A     45  36  70 E6          N/A
$$

LMZ740>746-261600-
SOUTHERN LAKE MICHIGAN

STATION/POSITION SKY/WX   TEMP    WIND        PRES    VSBY  WAVE
                          AIR SEA DIR/SP/G                  HT/PER
                          (F)     (DEG/KT/KT) (MB)    (MI)  (FT/S)
HARRISON CRIB              42      90/  3/  3   N/A
BURNHAM HARBOR             45      80/  5       N/A
CALUMET HARBOR             43      50/  5/  6 1014.7R
BURNS HARBOR               40      20/  4/  5 1015.9R
MICHIGAN CITY              42     340/  7/  7   N/A
ST. JOSEPH                 41 43   10/  8/ 10 1015.7          1/ 5
$$

ILZ025>027-034>036-040-047-049-050-058-095>099-261600-
WEST-CENTRAL ILLINOIS

CITY           SKY/WX    TMP DP  RH WIND       PRES   REMARKS
QUINCY         SUNNY     59  38  45 SW3       29.97F
GALESBURG*     FAIR      59  41  51 S8        29.98S
MACOMB*        CLOUDY    55  37  50 S7        30.00S
JACKSONVILLE*  SUNNY     56  36  45 CALM      29.98F
PITTSFIELD*    SUNNY     58  40  50 SE3       29.99F
$$

ILZ028>032-037-038-041>044-048-051>054-059>061-261600-
CENTRAL ILLINOIS

CITY           SKY/WX    TMP DP  RH WIND       PRES   REMARKS
PONTIAC        FAIR      54  30  40 E5        29.99F
BLOOMINGTON    FAIR      56  32  40 E6        29.99S
DECATUR        FAIR      54  33  45 E5        29.98F
PEORIA         FAIR      54  34  46 S7        29.98F
LACON*         FAIR      55  31  41 SE6       29.98S
LINCOLN*       FAIR      55  34  45 CALM      29.99S
SPRINGFIELD    FAIR      56  36  47 VRB3      29.99F
TAYLORVILLE    FAIR      54  34  46 CALM      29.98F
$$

ILZ033-039-045-046-055>057-062-063-261600-
EAST-CENTRAL ILLINOIS

CITY           SKY/WX    TMP DP  RH WIND       PRES   REMARKS
CHAMPAIGN      FAIR      54  31  41 N3        29.98F
DANVILLE*      FAIR      49  36  62 NE5       29.96S
RANTOUL*       FAIR      53  36  53 CALM      29.98F
MATTOON        FAIR      56  34  43 NE8       29.96F
PARIS*         FAIR      51  34  52 NW7       29.98F
$$

ILZ079-100>102-261600-
SOUTHWEST ILLINOIS

CITY           SKY/WX    TMP DP  RH WIND       PRES   REMARKS
ALTON          MOSUNNY   59  39  47 SE8       29.98S
BELLEVILLE     CLOUDY    57  39  51 E6        29.96S
CAHOKIA*       CLOUDY    58  38  47 SE3       29.98R
SPARTA*        CLOUDY    52  45  75 NE5       29.98S
$$

ILZ064>066-069>071-074>076-080>082-084>086-088>090-092>094-261600-
SOUTH-CENTRAL ILLINOIS

CITY           SKY/WX    TMP DP  RH WIND       PRES   REMARKS
CARBONDALE     CLOUDY    52  43  71 N5        29.95R
CAIRO*         CLOUDY    55  40  59 NE9       29.91S
EFFINGHAM*     FAIR      58  36  43 NE6       29.97S
MARION         CLOUDY    52  39  62 NE9       29.95R
MT. VERNON       N/A     58  39  49 E9        29.96S
CENTRALIA*     SUNNY     59  38  45 E5        29.96R
SALEM*         FAIR      58  35  41 E7        29.96S
METROPOLIS*    CLOUDY    56  40  55 NE5       29.92S
$$

ILZ067-068-072-073-078-083-087-091-261600-
SOUTHEAST ILLINOIS

CITY           SKY/WX    TMP DP  RH WIND       PRES   REMARKS
LAWRENCEVILLE  FAIR      60  32  34 MISG      29.95F
FLORA*         FAIR      57  35  44 NE5       29.97R
FAIRFIELD*     FAIR      56  35  44 NE6       29.95S
HARRISBURG*    CLOUDY    52  43  72 N5        29.96S
ROBINSON*      FAIR      56  33  41 N8        29.96S
CARMI*         CLOUDY    55  38  51 NE7       29.95R
$$

ABBREVIATIONS USED IN REMARKS
   TC - TEMPERATURE IN CELSIUS
  WCI - WIND CHILL INDEX
   HX - HEAT INDEX
  VSB - VISIBILITY
$$





USA.gov is the U.S. government's official web portal to all federal, state and local government web resources and services.